Flag Weather past 2 weeks in Sevilla, Spain

Now
63 °F

Passing clouds.


Feels Like: 63 °F
Forecast: 56 / 61 °F
Wind: 2 mph from North

Location: Sevilla / San Pablo

Current Time: Nov 26, 2014 at 5:24:42 PM

Latest Report: Nov 26, 2014 at 5:00 PM


Visibility: N/A

Pressure: 29.80 "Hg

Humidity: 68%

Dew point: 52 °F

Location of SevillaLocation

Historic Weather in Sevilla — Graph

°F

Sevilla temperature yesterday

Maximum temperature yesterday: 66 °F (at 1:30 PM)
Minimum temperature yesterday: 57 °F (at 7:30 AM)
Average temperature yesterday: 61 °F

Past Weeks' High & Low Weather Summary

 TemperatureHumidityPressure
High75 °F (Nov 21, 2:00 PM)100% (Nov 13, 7:30 AM)30.12 "Hg (Nov 13, 7:30 AM)
Low48 °F (Nov 18, 3:30 AM)44% (Nov 22, 6:00 PM)29.68 "Hg (Nov 22, 3:30 PM)
Average62 °F80%29.92 "Hg
* Reported Nov 11 4:00 PM — Nov 26 4:00 PM, Sevilla, Weather by CustomWeather, © 2014

Note: Actual official high and low records may vary slightly from our data, if they occured in-between our weather recording intervals... More about our weather records

Advertising

Sevilla weather history for previous 24 hours

 ConditionsComfort  
Time TempWeatherWind HumidityBarometerVisibility
4:00 PM
Nov 26
64 °FScattered clouds.7 mph64%29.86 "HgN/A
3:30 PM64 °FScattered clouds.6 mph68%29.86 "HgN/A
3:00 PM63 °FScattered clouds.7 mph64%29.86 "HgN/A
2:30 PM63 °FScattered clouds.12 mph68%29.89 "HgN/A
2:00 PM63 °FScattered clouds.13 mph68%29.89 "HgN/A
1:30 PM63 °FScattered clouds.13 mph64%29.89 "HgN/A
1:00 PM63 °FScattered clouds.8 mph68%29.92 "HgN/A
12:30 PM61 °FScattered clouds.5 mph72%29.92 "HgN/A
12:00 PM61 °FScattered clouds.6 mph83%29.95 "HgN/A
11:30 AM61 °FScattered clouds.5 mph88%29.95 "Hg6 mi
11:00 AM59 °FScattered clouds.5 mph94%29.95 "Hg6 mi
10:30 AM59 °FScattered clouds.6 mph88%29.95 "Hg6 mi
10:00 AM59 °FScattered clouds.3 mph94%29.95 "Hg4 mi
9:30 AM57 °FScattered clouds.1 mph94%29.95 "Hg4 mi
9:00 AM57 °FPartly sunny.1 mph94%29.98 "Hg4 mi
8:30 AM57 °FFog.No wind94%29.95 "Hg3 mi
8:00 AM57 °FFog.2 mph94%29.98 "Hg3 mi
7:30 AM57 °FFog.No wind100%29.98 "Hg2 mi
7:00 AM57 °FFog.No wind100%29.95 "Hg2 mi
6:30 AM59 °FFog.No wind94%29.98 "Hg1 mi
6:00 AM57 °FSleet. Fog.No wind100%29.98 "Hg3 mi
5:30 AM57 °FPartly cloudy.1 mph94%29.98 "Hg4 mi
5:00 AM57 °FPassing clouds.No wind94%29.98 "Hg6 mi
4:30 AM57 °FPassing clouds.No wind94%29.98 "Hg6 mi
4:00 AM57 °FPassing clouds.No wind94%30.01 "HgN/A
3:30 AM57 °FPassing clouds.No wind94%30.01 "HgN/A
1:00 AM57 °FPassing clouds.No wind100%30.04 "Hg5 mi
12:30 AM59 °FClear.1 mph94%30.07 "Hg4 mi
12:00 AM59 °FClear.No wind94%30.07 "Hg4 mi
11:30 PM
Nov 25
59 °FPassing clouds.2 mph94%30.07 "Hg4 mi
11:00 PM59 °FPassing clouds.1 mph94%30.07 "Hg5 mi
10:30 PM61 °FPassing clouds.3 mph94%30.07 "Hg6 mi
10:00 PM61 °FPassing clouds.3 mph94%30.07 "HgN/A
9:30 PM61 °FPassing clouds.7 mph94%30.07 "HgN/A
9:00 PM61 °FPassing clouds.7 mph94%30.07 "HgN/A
8:30 PM61 °FPassing clouds.5 mph88%30.07 "HgN/A
8:00 PM61 °FPassing clouds.6 mph88%30.07 "HgN/A
7:30 PM61 °FPassing clouds.3 mph88%30.07 "HgN/A
7:00 PM61 °FPassing clouds.2 mph83%30.04 "HgN/A
6:30 PM63 °FPassing clouds.5 mph77%30.04 "HgN/A
6:00 PM63 °FPassing clouds.7 mph77%30.04 "HgN/A
5:30 PM64 °FPassing clouds.7 mph78%30.04 "HgN/A
5:00 PM64 °FPassing clouds.7 mph78%30.04 "HgN/A
Weather by CustomWeather, © 2014

See weather overviewHow to use our weather pages